Location: Unspecified
(0.0000°N, 0.0000°E)
Time: 17:43:03
(UTC+00:00)

Safir 2 - Visible Passes

Search period start: 17 May 2026 00:00
Search period end: 27 May 2026 00:00
Orbit: 805 x 808 km, 99.0° (Epoch: 17 May)

Date Brightness Start Highest point End Pass type
(mag) Time Alt. Az. Time Alt. Az. Time Alt. Az.
17 May 10.6 03:29:32 10° ENE 03:32:43 16° ESE 03:35:55 10° SE visible
17 May 8.9 05:07:35 10° NNW 05:12:12 31° WNW 05:16:50 10° SW visible
18 May 8.1 04:42:19 10° N 04:47:31 63° WNW 04:52:44 10° SSW visible
19 May 8.4 04:17:37 10° NNE 04:22:50 65° ESE 04:27:50 11° S visible
20 May 9.6 03:53:30 10° NE 03:58:09 32° ESE 04:02:45 10° SSE visible
21 May 10.6 03:30:17 10° ENE 03:33:29 16° ESE 03:36:41 10° SE visible
21 May 8.9 05:08:21 10° NNW 05:12:57 31° WNW 05:17:35 10° SW visible
22 May 8.1 04:43:04 10° N 04:48:16 63° WNW 04:53:30 10° SSW visible
23 May 8.4 04:18:23 10° NNE 04:23:35 65° ESE 04:28:34 11° S visible
24 May 9.6 03:54:14 10° NE 03:58:54 32° ESE 04:03:28 10° SSE visible
25 May 10.6 03:31:01 10° ENE 03:34:14 16° ESE 03:37:28 10° SE visible
25 May 8.9 05:09:07 10° NNW 05:13:43 31° WNW 05:18:20 10° SW visible
26 May 8.1 04:43:50 10° N 04:49:01 63° WNW 04:54:14 10° SSW visible
